Location: Home
(42.5358°N, 72.7383°W)
Time: 20:23:24
(UTC-05:00)

Vanguard 2 - Pass Details

Date: 08 December 2021
Orbit: 553 x 2936 km, 32.9° (Epoch: 20 January)

Event Time Altitude Azimuth Distance (km) Brightness Sun altitude
Rises 16:17:34 0° 259° (W) 3,301 12.4 -0.8°
Reaches altitude 10° 16:20:18 10° 242° (WSW) 2,624 12.5 -1.3°
Maximum altitude 16:24:54 21° 195° (SSW) 2,375 10.7 -2.0°
Drops below altitude 10° 16:31:12 10° 152° (SSE) 3,746 11.1 -3.0°
Sets 16:36:10 0° 139° (SE) 5,225 11.6 -3.8°
